TimeCDT,TemperatureF,Dew PointF,Humidity,Sea Level PressureIn,VisibilityMPH,Wind Direction,Wind SpeedMPH,Gust SpeedMPH,PrecipitationIn,Events,Conditions,WindDirDegrees,DateUTC
12:13 AM,68.5,50.7,53,30.03,10.0,WNW,5.8,-,N/A,,Clear,290,2013-08-01 05:13:00
12:33 AM,67.5,50.9,55,30.03,10.0,WNW,3.5,-,N/A,,Clear,300,2013-08-01 05:33:00
12:53 AM,67.3,50.9,56,30.03,10.0,WNW,3.5,-,N/A,,Clear,290,2013-08-01 05:53:00
1:13 AM,65.5,51.3,60,30.03,10.0,West,3.5,-,N/A,,Clear,270,2013-08-01 06:13:00
1:33 AM,64.4,51.6,63,30.03,10.0,West,4.6,-,N/A,,Clear,260,2013-08-01 06:33:00
1:53 AM,64.4,51.4,63,30.03,10.0,West,4.6,-,N/A,,Clear,270,2013-08-01 06:53:00
2:13 AM,63.5,51.8,66,30.03,10.0,West,3.5,-,N/A,,Clear,280,2013-08-01 07:13:00
2:33 AM,63.7,52.0,66,30.03,10.0,West,4.6,-,N/A,,Clear,270,2013-08-01 07:33:00
2:53 AM,63.5,52.0,66,30.03,10.0,West,3.5,-,N/A,,Clear,280,2013-08-01 07:53:00
3:13 AM,63.1,52.2,67,30.03,10.0,Calm,Calm,-,N/A,,Clear,0,2013-08-01 08:13:00
3:33 AM,62.6,52.2,69,30.02,10.0,WNW,3.5,-,N/A,,Clear,290,2013-08-01 08:33:00
3:53 AM,61.7,52.5,72,30.02,10.0,Calm,Calm,-,N/A,,Clear,0,2013-08-01 08:53:00
4:13 AM,61.0,52.7,74,30.03,10.0,Calm,Calm,-,N/A,,Clear,0,2013-08-01 09:13:00
4:33 AM,61.7,52.9,73,30.03,10.0,Calm,Calm,-,N/A,,Clear,0,2013-08-01 09:33:00
4:53 AM,60.8,52.9,75,30.03,10.0,Calm,Calm,-,N/A,,Clear,0,2013-08-01 09:53:00
5:13 AM,60.6,53.2,77,30.03,10.0,Calm,Calm,-,N/A,,Clear,0,2013-08-01 10:13:00
5:33 AM,59.7,52.7,78,30.03,10.0,Calm,Calm,-,N/A,,Clear,0,2013-08-01 10:33:00
5:53 AM,59.2,53.2,81,30.03,10.0,Calm,Calm,-,N/A,,Clear,0,2013-08-01 10:53:00
6:13 AM,58.5,52.9,82,30.03,10.0,Calm,Calm,-,N/A,,Clear,0,2013-08-01 11:13:00
6:33 AM,59.0,53.2,81,30.03,10.0,Calm,Calm,-,N/A,,Clear,0,2013-08-01 11:33:00
6:53 AM,60.3,53.6,79,30.03,10.0,Calm,Calm,-,N/A,,Clear,0,2013-08-01 11:53:00
7:13 AM,61.7,53.8,75,30.03,10.0,Calm,Calm,-,N/A,,Clear,0,2013-08-01 12:13:00
7:33 AM,62.8,54.0,73,30.03,10.0,West,4.6,-,N/A,,Clear,260,2013-08-01 12:33:00
7:53 AM,64.2,54.3,70,30.04,10.0,West,4.6,-,N/A,,Clear,260,2013-08-01 12:53:00
8:13 AM,66.2,54.3,65,30.03,10.0,West,4.6,-,N/A,,Clear,280,2013-08-01 13:13:00
8:33 AM,68.0,53.8,60,30.03,10.0,West,6.9,-,N/A,,Clear,280,2013-08-01 13:33:00
8:53 AM,69.3,53.4,57,30.03,10.0,West,4.6,-,N/A,,Clear,280,2013-08-01 13:53:00
9:13 AM,71.2,53.6,54,30.03,10.0,WNW,3.5,-,N/A,,Clear,300,2013-08-01 14:13:00
9:33 AM,72.7,52.3,49,30.03,10.0,WNW,6.9,-,N/A,,Clear,300,2013-08-01 14:33:00
9:53 AM,73.4,51.8,47,30.02,10.0,NW,9.2,-,N/A,,Clear,320,2013-08-01 14:53:00
10:13 AM,73.9,51.8,46,30.03,10.0,West,5.8,-,N/A,,Clear,280,2013-08-01 15:13:00
10:33 AM,75.6,52.2,44,30.03,10.0,West,6.9,-,N/A,,Clear,270,2013-08-01 15:33:00
10:53 AM,76.1,53.1,45,30.03,10.0,WSW,6.9,-,N/A,,Clear,240,2013-08-01 15:53:00
11:13 AM,77.4,49.5,37,30.03,10.0,West,6.9,-,N/A,,Clear,280,2013-08-01 16:13:00
11:33 AM,77.9,49.5,37,30.02,10.0,West,8.1,-,N/A,,Clear,270,2013-08-01 16:33:00
11:53 AM,78.6,47.8,34,30.01,10.0,North,6.9,-,N/A,,Clear,350,2013-08-01 16:53:00
12:13 PM,79.5,47.1,32,30.01,10.0,Calm,Calm,-,N/A,,Clear,0,2013-08-01 17:13:00
12:33 PM,79.7,47.5,32,30.01,10.0,WSW,6.9,-,N/A,,Scattered Clouds,240,2013-08-01 17:33:00
12:53 PM,80.8,48.0,32,30.00,10.0,NW,9.2,-,N/A,,Scattered Clouds,320,2013-08-01 17:53:00
1:13 PM,81.1,48.0,31,29.98,10.0,West,6.9,-,N/A,,Clear,280,2013-08-01 18:13:00
1:33 PM,81.0,48.7,32,29.98,10.0,SW,8.1,-,N/A,,Clear,220,2013-08-01 18:33:00
1:53 PM,81.7,48.6,31,29.97,10.0,West,9.2,-,N/A,,Scattered Clouds,270,2013-08-01 18:53:00
2:13 PM,82.0,47.1,29,29.97,10.0,WNW,6.9,-,N/A,,Clear,300,2013-08-01 19:13:00
2:33 PM,81.7,48.0,31,29.96,10.0,WSW,6.9,-,N/A,,Clear,250,2013-08-01 19:33:00
2:53 PM,81.9,48.2,31,29.96,10.0,West,9.2,-,N/A,,Clear,270,2013-08-01 19:53:00
3:13 PM,82.6,49.1,31,29.95,10.0,West,10.4,-,N/A,,Clear,260,2013-08-01 20:13:00
3:33 PM,81.3,48.9,32,29.95,10.0,WSW,10.4,-,N/A,,Scattered Clouds,250,2013-08-01 20:33:00
3:53 PM,81.3,48.7,32,29.94,10.0,WNW,5.8,-,N/A,,Overcast,290,2013-08-01 20:53:00
4:13 PM,80.8,50.5,35,29.93,10.0,SW,6.9,-,N/A,,Mostly Cloudy,220,2013-08-01 21:13:00
4:33 PM,80.6,52.0,37,29.93,10.0,SSW,8.1,-,N/A,,Mostly Cloudy,210,2013-08-01 21:33:00
4:53 PM,82.2,52.0,35,29.92,10.0,SW,3.5,-,N/A,,Scattered Clouds,230,2013-08-01 21:53:00
5:13 PM,80.8,52.3,37,29.92,10.0,SW,6.9,-,N/A,,Scattered Clouds,230,2013-08-01 22:13:00
5:33 PM,80.2,52.3,38,29.91,10.0,WSW,4.6,-,N/A,,Scattered Clouds,240,2013-08-01 22:33:00
5:53 PM,81.3,52.7,37,29.90,10.0,SSW,4.6,-,N/A,,Mostly Cloudy,200,2013-08-01 22:53:00
6:13 PM,81.1,52.9,37,29.90,10.0,SSW,8.1,-,N/A,,Mostly Cloudy,210,2013-08-01 23:13:00
6:33 PM,79.9,54.1,41,29.90,10.0,WSW,4.6,-,N/A,,Scattered Clouds,240,2013-08-01 23:33:00
6:53 PM,80.6,53.6,39,29.90,10.0,SW,5.8,-,N/A,,Clear,230,2013-08-01 23:53:00
7:13 PM,80.2,54.3,41,29.89,10.0,SW,3.5,-,N/A,,Clear,220,2013-08-02 00:13:00
7:33 PM,80.1,55.2,42,29.89,10.0,WSW,3.5,-,N/A,,Clear,250,2013-08-02 00:33:00
7:53 PM,79.2,56.5,46,29.88,10.0,Calm,Calm,-,N/A,,Clear,0,2013-08-02 00:53:00
8:13 PM,78.8,56.1,46,29.87,10.0,Calm,Calm,-,N/A,,Clear,0,2013-08-02 01:13:00
8:33 PM,77.5,57.4,50,29.87,10.0,Calm,Calm,-,N/A,,Clear,0,2013-08-02 01:33:00
8:53 PM,74.7,59.2,58,29.87,10.0,Calm,Calm,-,N/A,,Clear,0,2013-08-02 01:53:00
9:13 PM,73.2,60.4,64,29.87,10.0,Calm,Calm,-,N/A,,Clear,0,2013-08-02 02:13:00
9:33 PM,72.7,59.9,64,29.87,10.0,Calm,Calm,-,N/A,,Clear,0,2013-08-02 02:33:00
9:53 PM,72.9,59.9,64,29.88,10.0,Calm,Calm,-,N/A,,Clear,0,2013-08-02 02:53:00
10:13 PM,71.6,59.9,66,29.87,10.0,Calm,Calm,-,N/A,,Clear,0,2013-08-02 03:13:00
10:33 PM,70.5,60.4,70,29.88,10.0,Calm,Calm,-,N/A,,Clear,0,2013-08-02 03:33:00
10:53 PM,70.3,60.1,70,29.87,10.0,Calm,Calm,-,N/A,,Clear,0,2013-08-02 03:53:00
11:13 PM,70.0,59.9,70,29.87,10.0,Calm,Calm,-,N/A,,Clear,0,2013-08-02 04:13:00
11:33 PM,69.6,59.2,69,29.87,10.0,Calm,Calm,-,N/A,,Clear,0,2013-08-02 04:33:00
11:53 PM,68.2,59.9,75,29.87,10.0,Calm,Calm,-,N/A,,Clear,0,2013-08-02 04:53:00